Weather reports worldwide

Advertisment
Baruth, Germany (10376): temperature & dewpoint: 14.06.2019 06:00:00 - 20.06.2019 06:00:00 (CEST)Baruth, Germany (10376): temperature 5cm & temperature -5cm: 14.06.2019 06:00:00 - 20.06.2019 06:00:00 (CEST)Baruth, Germany (10376): temperature -20cm & temperature -100cm: 14.06.2019 06:00:00 - 20.06.2019 06:00:00 (CEST)Baruth, Germany (10376): wind speed & gusts: 14.06.2019 06:00:00 - 20.06.2019 06:00:00 (CEST)Baruth, Germany (10376): wind direction: 14.06.2019 06:00:00 - 20.06.2019 06:00:00 (CEST)Baruth, Germany (10376): reduced air pressure: 14.06.2019 06:00:00 - 20.06.2019 06:00:00 (CEST)Baruth, Germany (10376): visibility: 14.06.2019 06:00:00 - 20.06.2019 06:00:00 (CEST)Baruth, Germany (10376): sunshine duration: 14.06.2019 06:00:00 - 20.06.2019 06:00:00 (CEST)Baruth, Germany (10376): precipitation: 14.06.2019 06:00:00 - 20.06.2019 06:00:00 (CEST)
Date & Time tt [°C] td [°C] tt 5cm [°C] tt -5cm [°C] tt -20cm [°C] tt -100cm [°C] ff [km/h] ff [kn] fx [km/h] fx [kn] dd ppp [hPa] vv [km] sd [min] rr [mm]
20.06.2019 06:00:00 16,9 14,6 15,3 21,0 24,1 18,8 7 4 17 9 W 1009,2 34 - 0,0
20.06.2019 05:00:00 16,7 14,8 14,7 21,8 24,5 18,8 3 2 16 9 W 1008,4 - - 0,2
20.06.2019 04:00:00 20,0 13,6 18,9 22,3 25,0 18,8 9 5 38 20 W 1008,8 30 - 0,0
20.06.2019 03:00:00 18,7 14,3 16,5 22,7 25,4 18,8 10 6 13 7 ESE 1007,5 21 - 0,0
20.06.2019 02:00:00 20,4 15,0 16,4 23,3 26,0 18,7 6 3 14 7 W 1008,4 33 - 0,0
20.06.2019 01:00:00 19,2 16,4 17,5 24,0 26,6 18,7 10 5 27 15 WSW 1008,7 19 - 0,0
20.06.2019 00:00:00 20,8 16,7 18,0 24,9 27,2 18,7 3 1 10 5 E 1007,6 22 - 0,0
19.06.2019 23:00:00 21,5 16,9 17,5 26,1 27,8 18,7 7 4 12 6 ESE 1007,6 28 - 0,0
19.06.2019 22:00:00 22,2 16,7 18,2 27,6 28,4 18,7 6 3 12 7 ESE 1007,6 15 - 0,0
19.06.2019 21:00:00 26,8 16,1 25,1 29,4 28,8 18,7 7 4 14 8 E 1007,3 31 - 0,0
19.06.2019 20:00:00 26,4 18,5 26,9 30,6 29,2 18,7 4 2 12 6 NNE 1007,1 44 - 0,0
19.06.2019 19:00:00 23,7 17,5 22,7 32,1 29,4 18,7 10 6 39 21 WNW 1007,6 27 - 0,2
19.06.2019 18:00:00 29,3 15,0 29,6 35,0 29,2 18,7 9 5 27 15 SSE 1006,9 52 - 0,0
19.06.2019 17:00:00 32,2 14,7 36,6 36,1 28,7 18,6 17 9 27 15 S 1007,4 43 - 0,0
19.06.2019 16:00:00 30,4 15,2 32,9 35,9 28,1 18,6 11 6 29 16 S 1007,9 50 - 0,0
19.06.2019 15:00:00 31,1 14,7 34,8 35,9 27,3 18,6 14 8 32 18 WSW 1008,6 37 - 0,0
19.06.2019 14:00:00 30,8 13,5 34,7 34,5 26,5 18,6 15 8 25 14 SSE 1008,8 39 - 0,0
19.06.2019 13:00:00 30,8 16,0 34,6 33,6 25,6 18,6 16 8 30 16 SSE 1009,0 45 - 0,0
19.06.2019 12:00:00 29,6 14,2 33,8 32,6 24,6 18,6 17 9 29 16 ESE 1009,7 35 - 0,0
19.06.2019 11:00:00 28,5 16,1 32,4 30,1 23,7 18,6 13 7 21 11 SSE 1010,1 28 - 0,0
19.06.2019 10:00:00 26,0 16,4 29,8 27,2 23,2 18,6 8 4 21 11 ESE 1010,7 32 - 0,0
19.06.2019 09:00:00 23,1 15,6 26,2 24,6 22,9 18,5 10 5 17 9 ESE 1011,1 23 - 0,0
19.06.2019 08:00:00 20,4 14,5 22,9 22,4 22,9 18,5 8 4 16 9 ESE 1011,5 24 - 0,0
19.06.2019 07:00:00 17,3 13,2 18,3 20,8 23,2 18,5 8 4 16 9 ESE 1011,8 23 - 0,0
19.06.2019 06:00:00 16,6 12,8 16,0 20,8 23,6 18,5 7 4 13 7 ESE 1012,2 24 - 0,0
19.06.2019 05:00:00 16,7 12,6 15,4 21,2 24,0 18,5 5 3 12 7 E 1012,4 32 - 0,0
19.06.2019 04:00:00 16,6 12,5 13,8 21,7 24,5 18,4 4 2 11 6 E 1012,6 33 - 0,0
19.06.2019 03:00:00 17,5 12,1 15,9 22,4 25,0 18,4 6 4 14 8 ESE 1012,8 44 - 0,0
19.06.2019 02:00:00 18,7 11,9 17,3 23,0 25,6 18,4 11 6 15 8 ESE 1013,1 49 - 0,0
19.06.2019 01:00:00 19,8 11,9 17,7 23,9 26,1 18,4 10 6 13 7 ESE 1013,5 53 - 0,0
19.06.2019 00:00:00 20,9 12,0 18,9 24,8 26,7 18,4 10 5 14 8 ESE 1013,9 60 - 0,0
18.06.2019 23:00:00 21,0 12,1 17,0 25,9 27,4 18,4 8 5 14 8 ESE 1013,9 60 - 0,0
18.06.2019 22:00:00 22,5 11,5 17,7 27,6 27,9 18,4 8 4 12 7 ESE 1013,8 8 - 0,0
18.06.2019 21:00:00 25,4 10,7 23,1 29,5 28,3 18,4 9 5 17 9 ESE 1013,4 70 - 0,0
18.06.2019 20:00:00 27,4 9,6 27,0 31,5 28,5 18,4 11 6 19 10 ESE 1013,4 70 - 0,0
18.06.2019 19:00:00 27,9 10,2 28,1 33,2 28,5 18,4 13 7 29 15 ESE 1013,7 70 - 0,0
18.06.2019 18:00:00 29,0 9,9 31,8 34,4 28,2 18,4 12 6 33 18 ESE 1014,0 70 - 0,0
18.06.2019 17:00:00 29,0 10,4 32,3 35,3 27,7 18,4 14 8 33 18 E 1014,5 45 - 0,0
18.06.2019 16:00:00 29,0 10,2 33,2 35,4 27,0 18,4 16 9 31 17 ESE 1015,1 51 - 0,0
18.06.2019 15:00:00 28,0 9,7 29,8 35,2 26,2 18,4 14 8 33 18 ESE 1016,0 70 - 0,0
18.06.2019 14:00:00 27,9 10,0 33,2 34,6 25,2 18,4 16 9 34 19 SSE 1016,5 37 - 0,0
18.06.2019 13:00:00 27,9 10,8 32,2 33,1 24,1 18,4 21 11 37 20 ESE 1017,2 68 - 0,0
18.06.2019 12:00:00 27,2 11,8 31,8 31,2 23,1 18,4 17 9 39 21 SE 1017,7 26 - 0,0
18.06.2019 11:00:00 26,0 10,6 29,9 28,8 22,2 18,4 22 12 39 21 ESE 1018,3 30 - 0,0
18.06.2019 10:00:00 24,8 12,5 28,6 26,2 21,5 18,4 18 10 29 16 SE 1018,7 35 - 0,0
18.06.2019 09:00:00 22,5 13,6 25,6 23,3 21,1 18,4 12 6 18 10 ESE 1019,1 31 37 0,0
18.06.2019 08:00:00 19,2 13,3 21,6 20,7 21,0 18,4 9 5 17 9 E 1019,4 28 32 0,0
18.06.2019 07:00:00 17,0 12,4 18,2 18,8 21,3 18,4 9 5 14 8 ESE 1019,2 21 27 0,0
18.06.2019 06:00:00 13,3 11,5 12,2 18,0 21,7 18,4 8 5 13 7 ESE 1019,3 15 10 0,0
18.06.2019 05:00:00 12,5 11,5 10,5 18,3 22,2 18,4 7 4 12 6 ESE 1019,4 11 0 0,0
18.06.2019 04:00:00 11,4 10,3 9,5 19,0 22,7 18,4 4 2 9 5 E 1019,5 10 0 0,0
18.06.2019 03:00:00 13,1 11,2 10,5 19,8 23,2 18,4 6 3 11 6 E 1019,5 14 0 0,0
18.06.2019 02:00:00 15,1 11,8 11,7 20,6 23,8 18,3 9 5 12 6 ESE 1019,9 19 0 0,0
18.06.2019 01:00:00 15,5 12,6 11,6 21,4 24,4 18,3 6 4 8 5 ESE 1019,8 21 0 0,0
18.06.2019 00:00:00 15,4 12,9 12,4 22,5 25,0 18,3 6 3 8 4 ESE 1019,7 22 0 0,0
17.06.2019 23:00:00 16,8 13,7 13,8 23,7 25,5 18,4 3 2 8 4 E 1019,7 28 0 0,0
17.06.2019 22:00:00 18,6 13,4 15,4 25,4 26,0 18,4 4 2 10 5 E 1019,5 16 3 0,0
17.06.2019 21:00:00 23,6 11,8 19,8 27,3 26,3 18,4 5 3 10 5 E 1019,2 55 44 0,0
17.06.2019 20:00:00 25,7 14,4 25,2 29,2 26,4 18,4 4 2 10 6 E 1019,2 48 48 0,0
17.06.2019 19:00:00 26,0 12,2 27,5 30,3 26,4 18,4 4 2 10 5 S 1019,5 53 34 0,0
17.06.2019 18:00:00 25,3 14,2 26,7 30,1 26,3 18,4 8 4 14 8 SE 1020,0 51 0 0,0
17.06.2019 17:00:00 25,6 12,5 27,4 31,8 26,0 18,4 7 4 19 10 SE 1020,3 59 18 0,0
17.06.2019 16:00:00 25,6 11,8 27,8 32,0 25,6 18,5 11 6 16 8 SE 1020,7 62 13 0,0
17.06.2019 15:00:00 25,3 10,6 27,5 32,2 25,0 18,5 4 2 10 6 SW 1021,0 53 25 0,0
17.06.2019 14:00:00 25,5 9,9 29,2 32,4 24,2 18,5 4 2 11 6 W 1021,2 11 38 0,0
17.06.2019 13:00:00 24,2 10,4 27,2 31,7 23,2 18,5 3 1 18 10 SW 1021,8 69 35 0,0
17.06.2019 12:00:00 24,1 10,3 30,8 30,6 22,1 18,5 6 3 19 10 WSW 1021,9 42 50 0,0
17.06.2019 11:00:00 23,1 11,3 28,5 27,9 21,1 18,5 8 4 18 10 WSW 1022,2 33 52 0,0
17.06.2019 10:00:00 22,3 11,5 26,6 24,5 20,4 18,5 8 4 21 11 SE 1022,5 48 51 0,0
17.06.2019 09:00:00 20,0 13,1 22,5 20,6 20,2 18,5 6 4 13 7 ESE 1022,9 45 17 0,0
17.06.2019 08:00:00 16,0 13,4 17,1 19,0 20,2 18,5 7 4 11 6 ESE 1023,1 22 0 0,0
17.06.2019 07:00:00 14,9 12,2 15,5 18,2 20,3 18,5 3 2 6 4 ENE 1022,9 26 0 0,0
17.06.2019 06:00:00 13,3 12,2 13,7 17,8 20,5 18,5 3 1 5 3 E 1022,6 16 0 0,0
17.06.2019 05:00:00 11,9 11,2 12,3 17,6 20,9 18,5 0 0 3 2 N 1022,4 12 0 0,0
17.06.2019 04:00:00 11,9 11,2 11,2 17,8 21,2 18,5 2 1 7 4 NE 1022,1 15 0 0,0
17.06.2019 03:00:00 11,3 10,5 10,9 18,0 21,6 18,5 3 1 7 4 E 1022,3 10 0 0,0
17.06.2019 02:00:00 11,1 10,8 10,3 18,2 22,1 18,5 2 1 5 3 ESE 1022,4 1,4 0 0,0
17.06.2019 01:00:00 11,6 10,5 9,7 18,9 22,6 18,5 1 1 6 3 ENE 1022,2 10 0 0,0
17.06.2019 00:00:00 12,4 12,1 9,9 19,7 23,1 18,5 2 1 4 2 SW 1021,9 0,2 0 0,0
16.06.2019 23:00:00 13,6 12,3 11,6 20,8 23,5 18,5 3 1 4 2 SE 1021,6 19 0 0,0
16.06.2019 22:00:00 14,6 12,8 12,4 21,7 24,0 18,5 0 0 5 3 N 1021,7 35 0 0,0
16.06.2019 21:00:00 17,7 12,6 14,7 23,3 24,3 18,5 5 3 8 4 W 1021,5 53 16 0,0
16.06.2019 20:00:00 20,1 12,2 19,5 24,6 24,6 18,5 5 3 12 6 WNW 1021,2 63 24 0,0
16.06.2019 19:00:00 19,6 13,6 20,3 25,2 24,7 18,5 6 3 12 6 W 1020,9 63 0 0,0
16.06.2019 18:00:00 19,8 12,3 20,3 26,0 24,8 18,5 8 4 20 11 W 1020,7 57 0 0,0
16.06.2019 17:00:00 20,5 10,4 22,1 27,1 24,7 18,5 7 4 22 12 NW 1020,9 70 0 0,0
16.06.2019 16:00:00 21,2 10,9 24,1 27,3 24,6 18,5 9 5 22 12 WNW 1020,8 70 0 0,0
16.06.2019 15:00:00 20,7 11,5 23,2 26,8 24,4 18,5 10 5 24 13 W 1020,7 70 0 0,0
16.06.2019 14:00:00 20,5 12,7 22,5 26,9 24,3 18,5 15 8 28 15 W 1020,4 54 0 0,0
16.06.2019 13:00:00 20,3 12,7 21,9 26,7 24,1 18,5 21 11 26 14 W 1020,3 55 0 0,0
16.06.2019 12:00:00 20,2 11,1 21,6 27,0 23,9 18,5 15 8 23 13 W 1020,1 70 0 0,0
16.06.2019 11:00:00 20,6 10,3 23,6 27,1 23,4 18,4 11 6 23 12 WNW 1019,6 60 10 0,0
16.06.2019 10:00:00 20,3 10,6 24,2 27,8 22,8 18,4 15 8 27 14 WNW 1018,9 39 45 0,0
16.06.2019 09:00:00 19,1 12,0 21,7 24,5 22,4 18,4 9 5 27 14 WNW 1018,8 70 44 0,0
16.06.2019 08:00:00 17,7 12,2 20,4 21,5 22,4 18,4 12 7 21 11 WNW 1018,3 38 43 0,0
16.06.2019 07:00:00 15,7 12,1 17,4 19,0 22,8 18,3 9 5 16 9 WNW 1017,6 50 16 0,0
16.06.2019 06:00:00 14,7 12,0 13,9 19,0 23,3 18,3 11 6 21 11 W 1017,2 56 6 0,0
16.06.2019 05:00:00 14,7 11,7 13,7 19,5 23,9 18,3 13 7 23 12 WNW 1016,8 68 0 0,0
16.06.2019 04:00:00 14,8 11,8 13,9 20,4 24,6 18,2 13 7 22 12 W 1016,2 70 0 0,0
16.06.2019 03:00:00 16,9 12,0 15,8 21,3 25,2 18,2 13 7 28 15 WNW 1015,9 70 0 0,0
16.06.2019 02:00:00 18,5 11,9 17,2 22,4 25,9 18,2 12 7 25 14 WNW 1016,2 70 0 0,0
16.06.2019 01:00:00 19,8 13,9 18,9 23,6 26,6 18,2 14 7 31 17 WNW 1015,6 57 0 0,0
16.06.2019 00:00:00 20,8 14,3 20,0 24,8 27,3 18,1 16 9 31 17 W 1014,9 54 0 0,0
15.06.2019 23:00:00 22,1 13,7 21,2 26,0 28,0 18,1 14 8 23 13 WNW 1014,0 62 0 0,0
15.06.2019 22:00:00 22,9 14,7 21,4 27,7 28,7 18,1 7 4 27 15 NW 1013,0 44 2 0,0
15.06.2019 21:00:00 25,0 14,7 24,4 29,9 29,2 18,1 13 7 29 16 NW 1011,6 45 37 0,0
15.06.2019 20:00:00 26,5 14,9 26,6 32,1 29,5 18,1 20 11 40 22 W 1011,2 47 50 0,0
15.06.2019 19:00:00 27,6 16,9 28,1 34,1 29,6 18,1 24 13 41 22 W 1010,4 25 49 0,0
15.06.2019 18:00:00 29,2 15,6 30,4 35,4 29,4 18,1 25 14 47 26 W 1009,8 16 45 0,0
15.06.2019 17:00:00 29,9 15,8 31,8 36,3 29,0 18,1 29 15 55 30 WSW 1009,8 22 27 0,0
15.06.2019 16:00:00 29,6 16,4 30,8 37,4 28,4 18,1 28 15 44 24 W 1009,4 27 46 0,0
15.06.2019 15:00:00 31,3 18,3 34,4 36,5 27,6 18,1 21 11 39 21 WSW 1008,7 21 40 0,0
15.06.2019 14:00:00 31,2 18,5 34,3 37,3 26,5 18,0 16 9 30 16 SSW 1008,6 28 44 0,0
15.06.2019 13:00:00 30,3 18,7 33,0 35,4 25,4 18,0 16 9 31 17 SSW 1008,3 23 48 0,0
15.06.2019 12:00:00 29,7 20,4 32,8 33,2 24,3 18,0 15 8 31 17 ESE 1008,4 19 59 0,0
15.06.2019 11:00:00 27,5 19,3 30,2 29,7 23,4 18,0 21 12 42 23 SE 1008,9 20 53 0,0
15.06.2019 10:00:00 26,3 19,1 28,5 27,0 22,9 18,0 24 13 40 22 SE 1009,0 20 38 0,0
15.06.2019 09:00:00 24,7 18,8 26,2 24,9 22,5 18,0 21 11 41 22 ESE 1009,3 17 51 0,0
15.06.2019 08:00:00 23,5 18,2 24,8 22,4 22,6 18,0 19 10 45 24 ESE 1009,4 17 42 0,0
15.06.2019 07:00:00 21,4 17,7 21,0 21,1 22,8 17,9 16 8 45 25 ESE 1010,0 17 0 0,0
15.06.2019 06:00:00 20,8 17,7 19,7 20,8 23,2 17,9 21 11 46 25 E 1009,9 15 0 0,3
15.06.2019 05:00:00 20,2 18,4 19,2 21,7 23,6 17,9 16 9 28 15 ENE 1011,3 8 0 1,1
15.06.2019 04:00:00 22,9 17,0 22,2 22,6 23,9 17,9 17 9 26 14 SE 1013,2 19 0 0,0
15.06.2019 03:00:00 23,5 16,2 22,8 22,8 24,3 17,9 13 7 22 12 ESE 1012,8 23 0 0,0
15.06.2019 02:00:00 23,4 15,5 22,5 23,1 24,7 17,8 12 6 24 13 E 1013,9 27 0 0,0
15.06.2019 01:00:00 23,6 14,7 22,3 23,6 25,2 17,8 14 7 26 14 ESE 1014,3 31 0 0,0
15.06.2019 00:00:00 24,3 14,0 22,9 24,5 25,8 17,8 11 6 21 12 E 1015,0 35 0 0,0
14.06.2019 23:00:00 24,3 14,5 22,5 25,4 26,3 17,8 7 4 12 6 E 1015,4 38 0 0,0
14.06.2019 22:00:00 25,5 13,9 23,7 26,4 26,8 17,8 7 4 20 11 E 1015,2 37 0 0,0
14.06.2019 21:00:00 26,3 12,7 24,9 28,0 27,3 17,8 7 4 17 9 E 1015,4 48 0 0,0
14.06.2019 20:00:00 27,4 11,9 26,1 29,7 27,6 17,9 7 4 17 9 E 1015,3 30 8 0,0
14.06.2019 19:00:00 28,5 11,6 28,5 32,0 27,7 17,9 11 6 20 11 SE 1015,6 67 31 0,0
14.06.2019 18:00:00 29,2 11,0 30,2 33,4 27,5 17,9 10 5 22 12 ESE 1016,0 55 60 0,0
14.06.2019 17:00:00 29,3 11,2 31,0 34,4 27,2 17,9 12 7 20 11 ESE 1016,7 62 30 0,0
14.06.2019 16:00:00 28,6 11,3 30,2 35,4 26,6 17,9 10 6 23 13 ESE 1016,9 70 32 0,0
14.06.2019 15:00:00 29,1 10,4 31,2 37,0 25,6 17,9 10 6 28 15 SSE 1017,3 70 60 0,0
14.06.2019 14:00:00 29,3 8,7 33,7 36,2 24,3 17,9 16 9 29 16 ESE 1017,9 70 60 0,0
14.06.2019 13:00:00 28,8 11,9 32,1 34,2 23,0 17,9 12 6 25 13 ESE 1018,5 42 60 0,0
14.06.2019 12:00:00 28,2 11,1 31,5 31,6 21,8 18,0 11 6 23 12 SE 1018,7 58 58 0,0
14.06.2019 11:00:00 26,5 14,6 29,2 28,6 20,6 18,0 9 5 22 12 SSE 1018,9 47 59 0,0
14.06.2019 10:00:00 25,1 14,8 27,3 25,5 19,7 18,0 9 5 17 9 SE 1019,0 44 57 0,0
14.06.2019 09:00:00 21,8 13,6 23,8 22,2 19,1 18,0 11 6 20 11 ESE 1019,1 29 59 0,0
14.06.2019 08:00:00 18,9 13,2 20,4 19,0 18,9 18,0 6 4 13 7 ESE 1019,0 23 59 0,0
14.06.2019 07:00:00 16,2 13,0 15,1 16,2 19,1 18,0 4 2 5 3 ESE 1018,6 25 59 0,0
14.06.2019 06:00:00 11,6 11,2 10,5 14,8 19,5 18,0 2 1 3 2 NNE 1018,3 18 18 0,0

tt = temperature
td = dewpoint
tt 5cm = temperature 5cm
tt -5cm = temperature -5cm
tt -20cm = temperature -20cm
tt -100cm = temperature -100cm
ff = wind speed
fx = gusts
dd = wind direction
ppp = reduced air pressure
vv = visibility
sd = sunshine duration
rr = precipitation

Next stations